Dublin, Ireland

7:23 PM IST on May 26, 2017 (GMT +0100)
Dublin International

Weather History for EIDW - June, 2013

Change the Weather History Date:

Friday, June 14, 2013

  Actual Average Record
Temperature  
Mean Temperature 53 °F -  
Max Temperature 61 °F 64 °F 75 °F (2004)
Min Temperature 45 °F 51 °F 37 °F (2011)
Degree Days  
Heating Degree Days 12    
Growing Degree Days 3 (Base 50)    
Moisture  
Dew Point 48 °F    
Average Humidity 81    
Maximum Humidity 94    
Minimum Humidity 54    
Precipitation  
Precipitation 0.04 in 0.07 in - ()
Sea Level Pressure  
Sea Level Pressure 29.71 in    
Wind  
Wind Speed 10 mph ()    
Max Wind Speed 28 mph    
Max Gust Speed 39 mph    
Visibility 5.9 miles    
Events Rain    
Averages and records for this station are not official NWS values.
T = Trace of Precipitation, MM = Missing Value Source: Averaged Metar Reports

Daily Weather History Graph

Daily Weather History Graph

Search for Another Location

Airport or City:

Trip Planner

Search our weather history database for the weather conditions in past years. The results will help you decide how hot, cold, wet, or windy it might be!

Date:

Astronomy

Jun. 14, 2013 Rise Set
Actual Time 4:56 AM IST 9:54 PM IST
Civil Twilight 4:03 AM IST 10:47 PM IST
Nautical Twilight 2:30 AM IST 12:20 AM IST
Astronomical Twilight Sun does not set Sun does not set
Moon 11:00 AM IST (6/14) 12:14 AM IST (6/14)
Length of Visible Light 18h 43m
Length of Day
16h 58m
Waxing Crescent, 28% of the Moon is Illuminated
Jun 14
Waxing Crescent
Jun 16
First Quarter
Jun 23
Full
Jun 30
Last Quarter
Jul 8
New

Hourly Weather History & Observations

Time (IST) Temp. Windchill Dew Point Humidity Pressure Visibility Wind Dir Wind Speed Gust Speed Precip Events Conditions
12:00 AM 46.4 °F 44.3 °F 42.8 °F 87% 29.89 in 6.2 mi SSW 4.6 mph - N/A   Partly Cloudy
12:30 AM 46.4 °F 45.2 °F 44.6 °F 93% 29.89 in 6.2 mi SSW 3.5 mph - N/A   Partly Cloudy
1:00 AM 46 °F - 44 °F 90% 29.91 in 31 mi South 4.5 mph - -   Partly Cloudy
1:00 AM 46.4 °F 45.2 °F 44.6 °F 93% 29.89 in 6.2 mi SSW 3.5 mph - N/A   Mostly Cloudy
1:30 AM 46.4 °F 45.2 °F 42.8 °F 87% 29.89 in 6.2 mi SSW 3.5 mph - N/A   Mostly Cloudy
2:00 AM 48.2 °F - 44.6 °F 87% 29.86 in 6.2 mi South 4.6 mph - N/A   Mostly Cloudy
2:30 AM 50.0 °F - 46.4 °F 87% 29.86 in 6.2 mi SSW 4.6 mph - N/A   Mostly Cloudy
3:00 AM 48.2 °F - 46.4 °F 93% 29.86 in 6.2 mi SSW 4.6 mph - N/A   Mostly Cloudy
3:30 AM 50.0 °F - 46.4 °F 87% 29.86 in 6.2 mi SSW 8.1 mph - N/A   Mostly Cloudy
4:00 AM 50.0 °F - 46.4 °F 87% 29.83 in 6.2 mi SSW 6.9 mph - N/A   Mostly Cloudy
4:30 AM 50.0 °F - 46.4 °F 87% 29.83 in 6.2 mi SSW 6.9 mph - N/A   Mostly Cloudy
5:00 AM 50.0 °F - 46.4 °F 87% 29.83 in 6.2 mi SSW 6.9 mph - N/A   Mostly Cloudy
5:30 AM 50.0 °F - 48.2 °F 94% 29.83 in 6.2 mi South 6.9 mph - N/A   Mostly Cloudy
6:00 AM 51.8 °F - 48.2 °F 88% 29.83 in 6.2 mi SSW 9.2 mph - N/A   Mostly Cloudy
6:30 AM 51.8 °F - 48.2 °F 88% 29.83 in 6.2 mi South 9.2 mph - N/A   Mostly Cloudy
7:00 AM 53 °F - 48 °F 78% 29.83 in 31 mi South 8.9 mph - -   Mostly Cloudy
7:00 AM 53.6 °F - 48.2 °F 82% 29.80 in 6.2 mi South 9.2 mph - N/A   Mostly Cloudy
7:30 AM 53.6 °F - 48.2 °F 82% 29.80 in 6.2 mi South 8.1 mph - N/A   Mostly Cloudy
8:00 AM 55.4 °F - 50.0 °F 82% 29.80 in 6.2 mi SSE 6.9 mph - N/A   Mostly Cloudy
8:30 AM 57.2 °F - 50.0 °F 77% 29.80 in 6.2 mi South 6.9 mph - N/A   Mostly Cloudy
9:00 AM 57.2 °F - 50.0 °F 77% 29.80 in 6.2 mi SSW 12.7 mph - N/A   Mostly Cloudy
9:30 AM 59.0 °F - 51.8 °F 77% 29.77 in 6.2 mi South 11.5 mph - N/A   Mostly Cloudy
10:00 AM 57.2 °F - 50.0 °F 77% 29.77 in 6.2 mi SSW 16.1 mph - N/A Rain Light Rain
10:30 AM 57.2 °F - 48.2 °F 72% 29.77 in 6.2 mi SW 15.0 mph - N/A Rain Light Rain Showers
11:00 AM 57.2 °F - 50.0 °F 77% 29.77 in 6.2 mi SSW 12.7 mph - N/A   Mostly Cloudy
11:30 AM 59.0 °F - 51.8 °F 77% 29.77 in 6.2 mi South 15.0 mph - N/A   Mostly Cloudy
12:00 PM 59.0 °F - 48.2 °F 67% 29.74 in 6.2 mi SSW 12.7 mph - N/A   Mostly Cloudy
12:30 PM 60.8 °F - 50.0 °F 68% 29.74 in 6.2 mi SSW 13.8 mph - N/A   Mostly Cloudy
1:00 PM 60 °F - 48 °F 54% 29.73 in 25 mi SSW 17.9 mph - - Rain Light Rain Showers
1:00 PM 60.8 °F - 48.2 °F 63% 29.71 in 6.2 mi SSW 17.3 mph - N/A   Mostly Cloudy
1:30 PM 60.8 °F - 48.2 °F 63% 29.71 in 6.2 mi South 17.3 mph - N/A   Mostly Cloudy
2:00 PM 59.0 °F - 50.0 °F 72% 29.71 in 6.2 mi SSW 16.1 mph - N/A Rain Light Rain Showers
2:30 PM 59.0 °F - 46.4 °F 63% 29.68 in 6.2 mi South 19.6 mph 33.4 mph N/A   Mostly Cloudy
3:00 PM 59.0 °F - 44.6 °F 59% 29.68 in 6.2 mi South 23.0 mph 34.5 mph N/A   Mostly Cloudy
3:30 PM 55.4 °F - 48.2 °F 77% 29.68 in 6.2 mi South 24.2 mph - N/A Rain Light Rain Showers
4:00 PM 55.4 °F - 46.4 °F 72% 29.68 in 6.2 mi South 17.3 mph - N/A Rain Light Rain Showers
4:30 PM 53.6 °F - 46.4 °F 77% 29.65 in 6.2 mi South 15.0 mph - N/A Rain Light Rain Showers
5:00 PM 55.4 °F - 48.2 °F 77% 29.65 in 6.2 mi SSE 13.8 mph - N/A   Scattered Clouds
5:30 PM 53.6 °F - 46.4 °F 77% 29.62 in 6.2 mi SSE 16.1 mph - N/A Rain Light Rain Showers
6:00 PM 53.6 °F - 44.6 °F 72% 29.59 in 6.2 mi SSE 24.2 mph 35.7 mph N/A   Scattered Clouds
6:30 PM 51.8 °F - 46.4 °F 82% 29.56 in 6.2 mi SSE 18.4 mph 29.9 mph N/A Rain Light Rain Showers
7:00 PM 52 °F - 48 °F 80% 29.56 in 6 mi SSE 20.1 mph - - Rain Light Rain Showers
7:00 PM 51.8 °F - 48.2 °F 88% 29.53 in 6.2 mi SSE 19.6 mph - N/A Rain Light Rain Showers
7:30 PM 51.8 °F - 50.0 °F 94% 29.50 in 3.7 mi SSE 23.0 mph - N/A Rain Light Rain
8:00 PM 50.0 °F - 46.4 °F 87% 29.47 in 3.7 mi SSE 27.6 mph 39.1 mph N/A Rain Light Rain
8:30 PM 50.0 °F - 48.2 °F 94% 29.44 in 2.5 mi SE 26.5 mph 38.0 mph N/A Rain Light Rain
9:00 PM 51.8 °F - 50.0 °F 94% 29.42 in 3.7 mi SE 23.0 mph - N/A Rain Light Rain
9:30 PM 51.8 °F - 50.0 °F 94% 29.39 in 5.0 mi SSE 17.3 mph - N/A   Mostly Cloudy
10:00 PM 51.8 °F - 50.0 °F 94% 29.42 in 6.2 mi SW 18.4 mph 35.7 mph N/A   Mostly Cloudy
10:30 PM 50.0 °F - 46.4 °F 87% 29.42 in 6.2 mi West 25.3 mph - N/A   Scattered Clouds
11:00 PM 48.2 °F - 46.4 °F 93% 29.44 in 6.2 mi WSW 19.6 mph - N/A   Mostly Cloudy
11:30 PM 50.0 °F - 46.4 °F 87% 29.47 in 6.2 mi WSW 17.3 mph - N/A   Mostly Cloudy